User: anonymous
Location: Fort Frances
(48.6170°N, 93.4170°W)
Time: 23:33:30
(UTC-05:00)
Language:

CZ-2C R/B - Orbit

View from above orbital plane
View from above orbital plane
View from above satellite
View from above satellite

Ground track
Ground track

The orbit data is extracted from the following two-line orbital elements,

1 36089U 09061B   14110.16032826  .00000554  00000-0  15118-3 0  3062
2 36089 098.1113 145.3066 0082208 358.1548 042.1955 14.49138801234532
Epoch (UTC): 20 April 2014 03:50:52
Eccentricity: 0.0082208
inclination: 98.1113°
perigee height: 670 km
apogee height: 787 km
right ascension of ascending node: 145.3066°
argument of perigee: 358.1548°
revolutions per day: 14.49138801
mean anomaly at epoch: 42.1955°
orbit number at epoch: 23453

The dashed part of the orbit path shows where the satellite is in the earth's shadow,  

DLR